Location: Doverdale
(52.2833°N, 2.2000°W)
Time: 11:51:56
(UTC+00:00)

Cosmos 1076 Rocket - Pass Details

Date: 29 October 2020
Orbit: 589 x 613 km, 82.5° (Epoch: 24 November)

Event Time Altitude Azimuth Distance (km) Brightness Sun altitude
Rises 18:25:17 0° 351° (N) 2,837 7.1 -15.9°
Reaches altitude 10° 18:27:30 10° 354° (N) 1,931 6.1 -16.2°
Maximum altitude 18:31:45 67° 77° (ENE) 647 3.4 -16.8°
Drops below altitude 10° 18:35:58 10° 161° (SSE) 1,921 5.9 -17.5°
Sets 18:38:11 0° 164° (SSE) 2,821 6.8 -17.8°
